Wisconsin Rapids, WI

1:38 AM CDT on October 17, 2017 (GMT -0500)
Alexander Field South Wood County

Weather History for KISW - November, 2012

Change the Weather History Date:

Friday, November 2, 2012

  Actual Average Record
Temperature  
Mean Temperature 33 °F -  
Max Temperature 44 °F 49 °F 69 °F (1978)
Min Temperature 23 °F 32 °F 1 °F (1951)
Degree Days  
Heating Degree Days 32    
Moisture  
Dew Point 23 °F    
Average Humidity 70    
Maximum Humidity 92    
Minimum Humidity 43    
Precipitation  
Precipitation 0.00 in - - ()
Sea Level Pressure  
Sea Level Pressure 30.14 in    
Wind  
Wind Speed 3 mph (North)    
Max Wind Speed 9 mph    
Max Gust Speed -    
Visibility 10 miles    
Events      
Averages and records for this station are not official NWS values.
T = Trace of Precipitation, MM = Missing Value Source: NWS Daily Summary

Daily Weather History Graph

Daily Weather History Graph

Search for Another Location

Airport or City:

Trip Planner

Search our weather history database for the weather conditions in past years. The results will help you decide how hot, cold, wet, or windy it might be!

Date:

Astronomy

Nov. 02, 2012 Rise Set
Actual Time 7:38 AM CDT 5:46 PM CDT
Civil Twilight 7:08 AM CDT 6:17 PM CDT
Nautical Twilight 6:33 AM CDT 6:51 PM CDT
Astronomical Twilight 5:59 AM CDT 7:25 PM CDT
Moon 8:29 PM CDT (11/2) 11:03 AM CDT (11/2)
Length of Visible Light 11h 08m
Length of Day
10h 08m
Waning Gibbous, 87% of the Moon is Illuminated
Nov 2
Waning Gibbous
Nov 6
Last Quarter
Nov 13
New
Nov 20
First Quarter
Nov 28
Full

Hourly Weather History & Observations

Time (CDT) Temp. Windchill Dew Point Humidity Pressure Visibility Wind Dir Wind Speed Gust Speed Precip Events Conditions
12:54 AM 30.0 °F 26.5 °F 26.1 °F 85% 30.03 in 10.0 mi NNW 3.5 mph - N/A   Clear
1:54 AM 28.9 °F 23.9 °F 25.0 °F 85% 30.04 in 10.0 mi NNW 4.6 mph - N/A   Clear
2:54 AM 28.0 °F 22.8 °F 24.1 °F 85% 30.05 in 10.0 mi NW 4.6 mph - N/A   Clear
3:54 AM 25.0 °F 20.7 °F 21.9 °F 88% 30.07 in 10.0 mi North 3.5 mph - N/A   Clear
4:54 AM 26.1 °F - 23.0 °F 88% 30.07 in 10.0 mi Calm Calm - N/A   Clear
5:54 AM 23.0 °F 17.0 °F 19.9 °F 88% 30.09 in 10.0 mi NW 4.6 mph - N/A   Clear
6:54 AM 24.1 °F - 21.0 °F 88% 30.11 in 10.0 mi Calm Calm - N/A   Clear
7:54 AM 23.0 °F - 21.0 °F 92% 30.12 in 10.0 mi Calm Calm - N/A   Clear
8:54 AM 28.0 °F - 25.0 °F 88% 30.14 in 10.0 mi Calm Calm - N/A   Clear
9:54 AM 34.0 °F 28.0 °F 25.0 °F 70% 30.15 in 10.0 mi North 6.9 mph - N/A   Clear
10:54 AM 36.0 °F 33.3 °F 23.0 °F 59% 30.16 in 10.0 mi Variable 3.5 mph - N/A   Clear
11:54 AM 37.9 °F 33.5 °F 23.0 °F 55% 30.17 in 10.0 mi ENE 5.8 mph - N/A   Clear
12:54 PM 39.9 °F - 23.0 °F 51% 30.16 in 10.0 mi Calm Calm - N/A   Clear
1:54 PM 42.1 °F 39.2 °F 21.9 °F 45% 30.14 in 10.0 mi NNW 4.6 mph - N/A   Clear
2:54 PM 43.0 °F 41.3 °F 23.0 °F 45% 30.14 in 10.0 mi NW 3.5 mph - N/A   Clear
3:54 PM 43.0 °F 41.3 °F 21.9 °F 43% 30.14 in 10.0 mi North 3.5 mph - N/A   Clear
4:54 PM 42.1 °F 40.2 °F 21.9 °F 45% 30.14 in 10.0 mi North 3.5 mph - N/A   Clear
5:54 PM 34.0 °F - 23.0 °F 64% 30.16 in 10.0 mi Calm Calm - N/A   Clear
6:54 PM 32.0 °F - 23.0 °F 69% 30.17 in 10.0 mi Calm Calm - N/A   Clear
7:54 PM 30.0 °F - 21.9 °F 72% 30.17 in 10.0 mi Calm Calm - N/A   Clear
8:54 PM 28.9 °F - 21.9 °F 75% 30.18 in 10.0 mi Calm Calm - N/A   Clear
9:54 PM 28.0 °F - 21.9 °F 78% 30.19 in 10.0 mi Calm Calm - N/A   Clear
10:54 PM 34.0 °F 27.2 °F 21.9 °F 61% 30.22 in 10.0 mi East 8.1 mph - N/A   Clear
11:54 PM 30.9 °F 22.8 °F 23.0 °F 72% 30.23 in 10.0 mi East 9.2 mph - N/A   Clear